Location: Filler
(36.7551°N, 30.4456°E)
Time: 15:48:18
(UTC+00:00)

NOSS 2-2 (E) - Pass Details

Date: 20 September 2024
Orbit: 399 x 1743 km, 63.3° (Epoch: 11 October)

Event Time Altitude Azimuth Distance (km) Brightness Sun altitude
Exits shadow 02:39:28 21° 227° (SW) 1,101 4.4 -13.8°
Maximum altitude 02:41:37 60° 303° (WNW) 499 2.8 -13.4°
Drops below altitude 10° 02:44:42 10° 24° (NNE) 1,461 6.0 -12.8°
Sets 02:46:40 0° 29° (NNE) 2,312 7.1 -12.4°
